Showing default

BLACKJACK ACES-3, 56950

Orbit data source: Space-Track

BLACKJACK ACES-3, 56950 is a payload satellite owned by DARPA (US) in SSO that was launched on Mon, 12 Jun 2023 UTC via an FALCON 9 launch vehicle from the Air Force Western Test Range (AFWTR). Payload-class satellites include a variety of spacecraft equipped with specific instruments for various scientific and technological missions. These include communications satellites like Starlink; space stations such as the ISS; scientific satellites like the Hubble; Earth observation satellites from companies like Planet Labs, Umbra, and HawkEye 360; GPS; miniature CubeSats for education and research; and military/defense satellites.

Loading next visibility...
Identifier
56950, 2023-084U
Orbit
SSO
Country
Flag of USUS
Related business
Manufacturer
BLCAN/LMSS
Mission
Operational Defense Communications
Bus & Motor
X-SAT, Unknown motor
Mass
~200 kg wet, ~200 kg dry
Launch date (UTC)
2023-06-12 (3 years ago)
Launch vehicle
FALCON 9
Launch site
Air Force Western Test Range (AFWTR)
Object type
Payload
Rocket body
Debris
Shape & HBR
Box, 3.6 m
Radar Cross Section
0.875 m², Large (>1 m²)

Expand to show TLE details & history
Last TLE update: 11 hours ago

TLE from 11 hours ago
0 BLACKJACK ACES-3
1 56950U 23084U   26264.09803147  .00003201  00000-0  15745-3 0  9995
2 56950  97.6330  40.1339 0002568  76.7763 283.3757 15.18753783181724
Epoch: 2026-09-21T02:21Z
TLE epoch observation values (Epoch: 2026-09-21T02:21:09.919Z)
Latitude
-0.00001°
Longitude
4.85983°
Altitude
512.279 km
Speed
7.608 km/s
True Right ascension
02h 40m 32s
True Declination
0° 00' 00"
Sunlit
Object was in full shadow at epoch
Visualization orbit readout
Latitude
Unknown
Longitude
Unknown
Altitude
Unknown
Speed
Unknown
Apparent Right ascension
Unknown
Apparent Declination
Unknown
Sunlit
N/A
Visualization observer readout
Local Sidereal Time
06:01:39
Azimuth
Unknown
Elevation
Unknown
Doppler factor
Unknown
Orbital elements
Apogee altitude
508.351 km
Perigee altitude
504.815 km
Semi-major axis
6,884.72 km
Eccentricity
0.00026
Inclination
97.633°
RAAN
40.1339°
Arg. of periapsis
76.7763°
True anomaly
283.34707°
Mean anomaly
283.3757°
Eccentric anomaly
283.36138°
Mean motion
3.79939 °/min
Orbital period
94.75 mins
BSTAR
0.00015745
Loading maneuver chart data...
Computing Atmospheric mass density...

Documentation

Showing up to 5 results
|